Showing default

QIANFAN-50, 62251

Orbit data source: Space-Track

QIANFAN-50, 62251 is a Chinese payload satellite in LEO that was launched on Thu, 05 Dec 2024 UTC via a CHANG ZHENG 6A launch vehicle from the Taiyaun Space Center, China (TSC). Payload-class satellites include a variety of spacecraft equipped with specific instruments for various scientific and technological missions. These include communications satellites like Starlink; space stations such as the ISS; scientific satellites like the Hubble; Earth observation satellites from companies like Planet Labs, Umbra, and HawkEye 360; GPS; miniature CubeSats for education and research; and military/defense satellites.

Loading next visibility...
Identifier
62251, 2024-232Q
Orbit
LEO
Country
Flag of CNCN / PRC
Related business
Manufacturer
SECM
Mission
Operational Commercial Communications
Bus & Motor
QIANFAN, Unknown motor
Mass
267 kg wet, ~267 kg dry
Launch date (UTC)
2024-12-05 (10 months ago)
Launch vehicle
CHANG ZHENG 6A
Launch site
Taiyaun Space Center, China (TSC)
Object type
Payload
Rocket body
Debris
Shape & HBR
Box + 1 Pan, 5.0 m
Radar Cross Section
13.200 m², Large (>1 m²)

Expand to show TLE details & history
Last TLE update: 17 hours ago

TLE from 17 hours ago
0 QIANFAN-50
1 62251U 24232Q   25287.90961313  .00000157  00000-0  22485-3 0  9992
2 62251  89.0022  47.1631 0015733  13.1235 347.0322 13.50979325 59925
Epoch: 2025-10-14T21:49Z
TLE epoch observation values (Epoch: 2025-10-14T21:49:50.574Z)
Latitude
-0.00006°
Longitude
56.0111°
Altitude
1,060.192 km
Speed
7.327 km/s
True Right ascension
03h 08m 39s
True Declination
0° 00' 00"
Sunlit
Object was in full shadow at epoch
Visualization orbit readout
Latitude
Unknown
Longitude
Unknown
Altitude
Unknown
Speed
Unknown
Apparent Right ascension
Unknown
Apparent Declination
Unknown
Sunlit
N/A
Visualization observer readout
Local Sidereal Time
09:05:31
Azimuth
Unknown
Elevation
Unknown
Doppler factor
Unknown
Orbital elements
Apogee altitude
1,077.42 km
Perigee altitude
1,053.997 km
Semi-major axis
7,443.846 km
Eccentricity
0.00157
Inclination
89.0022°
RAAN
47.1631°
Arg. of periapsis
13.1235°
True anomaly
346.99167°
Mean anomaly
347.0322°
Eccentric anomaly
347.01194°
Mean motion
3.37946 °/min
Orbital period
106.53 mins
BSTAR
0.00022485
Loading maneuver chart data...
Computing Atmospheric mass density...
Loading historical data...
Loading historical data...
Loading historical data...
Loading historical data...
Loading historical data...
Loading historical data...
Loading historical data...

Documentation

Showing up to 5 results
|